Whitefield, NH

4:52 AM EDT on April 23, 2017 (GMT -0400)
Mount Washington Regional

Weather History for KHIE - March, 2014

Change the Weather History Date:

Thursday, March 27, 2014

  Actual Average Record
Temperature  
Mean Temperature 18 °F -  
Max Temperature 34 °F 39 °F 66 °F (1998)
Min Temperature 3 °F 20 °F -2 °F (2001)
Degree Days  
Heating Degree Days 47    
Moisture  
Dew Point 0 °F    
Average Humidity 39    
Maximum Humidity 61    
Minimum Humidity 23    
Precipitation  
Precipitation 0.00 in - - ()
Sea Level Pressure  
Sea Level Pressure 30.21 in    
Wind  
Wind Speed 7 mph (ESE)    
Max Wind Speed 15 mph    
Max Gust Speed -    
Visibility 10 miles    
Events      
Averages and records for this station are not official NWS values.
T = Trace of Precipitation, MM = Missing Value Source: NWS Daily Summary

Daily Weather History Graph

Daily Weather History Graph

Search for Another Location

Airport or City:

Trip Planner

Search our weather history database for the weather conditions in past years. The results will help you decide how hot, cold, wet, or windy it might be!

Date:

Astronomy

Mar. 27, 2014 Rise Set
Actual Time 6:36 AM EDT 7:07 PM EDT
Civil Twilight 6:07 AM EDT 7:36 PM EDT
Nautical Twilight 5:32 AM EDT 8:10 PM EDT
Astronomical Twilight 4:57 AM EDT 8:46 PM EDT
Moon 4:33 AM EDT (3/27) 3:44 PM EDT (3/27)
Length of Visible Light 13h 29m
Length of Day
12h 30m
Waning Crescent, 13% of the Moon is Illuminated
Mar 27
Waning Crescent
Mar 30
New
Apr 7
First Quarter
Apr 15
Full
Apr 22
Last Quarter

Hourly Weather History & Observations

Time (EDT) Temp. Windchill Dew Point Humidity Pressure Visibility Wind Dir Wind Speed Gust Speed Precip Events Conditions
12:52 AM 15.1 °F 9.4 °F -4.0 °F 43% 30.06 in 10.0 mi Variable 3.5 mph - N/A   Clear
1:52 AM 12.9 °F 6.9 °F -6.0 °F 43% 30.09 in 10.0 mi Variable 3.5 mph - N/A   Clear
2:52 AM 12.0 °F 0.5 °F -7.1 °F 42% 30.11 in 10.0 mi ESE 8.1 mph - N/A   Clear
3:52 AM 6.1 °F -8.7 °F -7.1 °F 55% 30.14 in 10.0 mi ESE 10.4 mph - N/A   Clear
4:52 AM 3.9 °F -11.3 °F -7.1 °F 60% 30.19 in 10.0 mi ESE 10.4 mph - N/A   Clear
5:52 AM 9.0 °F -0.9 °F -7.1 °F 48% 30.22 in 10.0 mi ESE 5.8 mph - N/A   Clear
6:52 AM 8.1 °F -6.2 °F -6.0 °F 53% 30.26 in 10.0 mi SE 10.4 mph - N/A   Clear
7:52 AM 12.0 °F -1.3 °F -5.1 °F 46% 30.27 in 10.0 mi ESE 10.4 mph - N/A   Clear
8:52 AM 15.1 °F 9.4 °F -5.1 °F 41% 30.28 in 10.0 mi Variable 3.5 mph - N/A   Clear
9:52 AM 18.0 °F 11.1 °F -5.1 °F 36% 30.29 in 10.0 mi Variable 4.6 mph - N/A   Clear
10:52 AM 21.0 °F 14.6 °F -4.0 °F 33% 30.28 in 10.0 mi SE 4.6 mph - N/A   Clear
11:52 AM 23.0 °F 14.7 °F -4.0 °F 31% 30.26 in 10.0 mi SE 6.9 mph - N/A   Clear
12:52 PM 26.1 °F 17.6 °F -2.0 °F 30% 30.25 in 10.0 mi East 8.1 mph - N/A   Clear
1:52 PM 28.0 °F 22.8 °F -2.0 °F 27% 30.23 in 10.0 mi Variable 4.6 mph - N/A   Clear
2:52 PM 30.9 °F 22.8 °F -0.9 °F 26% 30.21 in 10.0 mi SE 9.2 mph - N/A   Clear
3:52 PM 33.1 °F 26.9 °F -0.9 °F 23% 30.21 in 10.0 mi SE 6.9 mph - N/A   Clear
4:52 PM 33.1 °F 26.1 °F -0.9 °F 23% 30.22 in 10.0 mi SE 8.1 mph - N/A   Overcast
5:52 PM 33.1 °F 25.5 °F -0.0 °F 24% 30.22 in 10.0 mi ESE 9.2 mph - N/A   Scattered Clouds
6:52 PM 32.0 °F 23.6 °F 1.0 °F 27% 30.22 in 10.0 mi ESE 10.4 mph - N/A   Overcast
7:52 PM 32.0 °F 22.5 °F 6.1 °F 34% 30.20 in 10.0 mi ESE 12.7 mph - N/A   Overcast
8:52 PM 30.9 °F 22.2 °F 9.0 °F 40% 30.19 in 10.0 mi ESE 10.4 mph - N/A   Overcast
9:52 PM 30.9 °F 21.7 °F 10.0 °F 42% 30.19 in 10.0 mi East 11.5 mph - N/A   Overcast
10:52 PM 33.1 °F 23.0 °F 18.0 °F 54% 30.17 in 10.0 mi ESE 15.0 mph - N/A   Overcast
11:52 PM 32.0 °F 23.6 °F 19.9 °F 61% 30.17 in 10.0 mi ESE 10.4 mph - N/A   Overcast